+ View the NASA Portal
+ Center for Near-Earth Object Studies
IMPORTANT:
The SSD Announcement email list is now available. Major changes are coming in the near future, including possible hostname and/or URL changes. To be notified of such changes, subscribe to this email list.
Please visit
this page
for more details.
Don't show this message again
JPL Small-Body Database Browser
Search:
[
help
]
193774 (2001 OK5)
Classification:
Main-belt Asteroid
SPK-ID:
2193774
[
Ephemeris
|
Orbit Diagram
|
Orbital Elements
|
Mission Design
|
Physical Parameters
|
Discovery Circumstances
|
Close-Approach Data
]
[ show orbit diagram ]
Orbital Elements at Epoch 2458600.5 (2019-Apr-27.0) TDB
Reference:
JPL 15
(heliocentric ecliptic J2000)
Element
Value
Uncertainty (1-sigma)
Units
e
.1510022326922885
4.4737e-08
a
2.241895319880474
8.5892e-09
au
q
1.90336412111613
9.9185e-08
au
i
6.940555740852379
5.5957e-06
deg
node
229.6153780904819
3.2386e-05
deg
peri
120.4377451582224
3.8493e-05
deg
M
83.92633331116706
1.8915e-05
deg
t
p
2458314.663838482577
(2018-Jul-15.16383848)
6.3907e-05
TDB
period
1226.087380283305
3.36
7.0461e-06
1.929e-08
d
yr
n
.2936169197963827
1.6874e-09
deg/d
Q
2.580426518644818
9.8862e-09
au
Orbit Determination Parameters
# obs. used (total)
512
data-arc span
7355 days (20.14 yr)
first obs. used
1998-11-21
last obs. used
2019-01-10
planetary ephem.
DE431
SB-pert. ephem.
SB431-N16
condition code
0
norm. resid. RMS
.54204
source
ORB
producer
Otto Matic
solution date
2019-Jul-13 09:10:17
Additional Information
Earth MOID
= .908357 au
Jupiter MOID
= 2.86714 au
T_jup
= 3.609
[ show covariance matrix ]
[
Ephemeris
|
Orbit Diagram
|
Orbital Elements
|
Mission Design
|
Physical Parameters
|
Discovery Circumstances
|
Close-Approach Data
]
Physical Parameter Table
Parameter
Symbol
Value
Units
Sigma
Reference
Notes
absolute magnitude
H
16.4
n/a
MPO449957
193774 (2001 OK5)
Discovered 2001-Jul-17 by LONEOS at Anderson Mesa
Reference:
20081113/Numbers.arc
Last Updated:
2008-11-17
[ show close-approach data ]
Alternate Designations
2001 OK5
= 1998 WL14
[
Ephemeris
|
Orbit Diagram
|
Orbital Elements
|
Mission Design
|
Physical Parameters
|
Discovery Circumstances
|
Close-Approach Data
]
2019-Dec-11 08:43 UT
(server date/time)
Site Manager:
Ryan S. Park
Webmaster
:
Alan B. Chamberlin